TimeCST,TemperatureF,Dew PointF,Humidity,Sea Level PressureIn,VisibilityMPH,Wind Direction,Wind SpeedMPH,Gust SpeedMPH,PrecipitationIn,Events,Conditions,WindDirDegrees,DateUTC
12:15 AM,38.5,34.2,84,29.98,10.0,Calm,Calm,-,N/A,,Overcast,0,2012-12-07 06:15:00
12:35 AM,37.6,34.0,87,29.98,10.0,NNW,3.5,-,N/A,,Mostly Cloudy,330,2012-12-07 06:35:00
12:55 AM,39.2,34.0,82,29.98,10.0,North,3.5,-,N/A,,Overcast,350,2012-12-07 06:55:00
1:15 AM,39.9,33.4,78,29.98,10.0,North,3.5,-,N/A,,Overcast,350,2012-12-07 07:15:00
1:35 AM,39.4,33.8,80,29.99,10.0,NNW,5.8,-,N/A,,Overcast,340,2012-12-07 07:35:00
1:55 AM,39.7,32.7,76,29.98,10.0,North,6.9,-,N/A,,Mostly Cloudy,350,2012-12-07 07:55:00
2:15 AM,39.2,32.5,77,29.97,10.0,North,6.9,-,N/A,,Scattered Clouds,360,2012-12-07 08:15:00
2:35 AM,38.7,32.4,78,29.97,10.0,North,6.9,-,N/A,,Mostly Cloudy,360,2012-12-07 08:35:00
2:55 AM,38.8,32.0,76,29.97,10.0,North,8.1,-,N/A,,Overcast,350,2012-12-07 08:55:00
3:15 AM,38.5,32.0,78,29.97,10.0,North,6.9,-,N/A,,Mostly Cloudy,360,2012-12-07 09:15:00
3:35 AM,38.1,32.0,79,29.97,10.0,North,6.9,-,N/A,,Mostly Cloudy,10,2012-12-07 09:35:00
3:55 AM,37.4,32.0,81,29.96,10.0,North,5.8,-,N/A,,Overcast,360,2012-12-07 09:55:00
4:15 AM,37.4,32.0,81,29.96,10.0,North,6.9,-,N/A,,Overcast,360,2012-12-07 10:15:00
4:35 AM,37.2,32.0,81,29.96,10.0,North,9.2,-,N/A,,Overcast,360,2012-12-07 10:35:00
4:55 AM,36.9,31.5,81,29.97,10.0,North,10.4,-,N/A,,Overcast,360,2012-12-07 10:55:00
5:15 AM,36.5,30.2,78,29.97,10.0,North,11.5,-,N/A,,Overcast,10,2012-12-07 11:15:00
5:35 AM,35.8,29.8,79,29.96,10.0,North,9.2,-,N/A,,Overcast,10,2012-12-07 11:35:00
5:55 AM,35.6,30.0,80,29.95,10.0,NNE,9.2,-,N/A,,Overcast,30,2012-12-07 11:55:00
6:15 AM,35.1,30.2,82,29.95,10.0,NE,3.5,-,N/A,,Overcast,50,2012-12-07 12:15:00
6:35 AM,35.1,30.0,82,29.96,10.0,NNE,6.9,-,N/A,,Overcast,30,2012-12-07 12:35:00
6:55 AM,34.7,29.1,80,29.95,10.0,NNE,8.1,-,N/A,,Overcast,20,2012-12-07 12:55:00
7:15 AM,34.7,28.6,78,29.96,10.0,NNE,8.1,-,N/A,,Overcast,20,2012-12-07 13:15:00
7:35 AM,34.5,29.1,81,29.97,10.0,North,6.9,-,N/A,,Overcast,10,2012-12-07 13:35:00
7:55 AM,34.7,28.9,79,29.97,10.0,North,6.9,-,N/A,,Overcast,360,2012-12-07 13:55:00
8:15 AM,34.7,28.9,79,29.97,10.0,NNE,4.6,-,N/A,,Overcast,30,2012-12-07 14:15:00
8:35 AM,34.9,29.3,80,29.97,10.0,NNE,5.8,-,N/A,,Overcast,20,2012-12-07 14:35:00
8:55 AM,35.4,29.5,79,29.97,10.0,NNE,5.8,-,N/A,,Overcast,20,2012-12-07 14:55:00
9:15 AM,37.4,30.0,75,29.96,10.0,NE,6.9,-,N/A,,Overcast,40,2012-12-07 15:15:00
9:35 AM,38.5,29.3,70,29.95,10.0,East,9.2,-,N/A,,Overcast,100,2012-12-07 15:35:00
9:55 AM,39.2,29.1,67,29.95,10.0,East,10.4,-,N/A,,Overcast,80,2012-12-07 15:55:00
10:15 AM,38.7,29.1,69,29.95,10.0,East,8.1,-,N/A,,Scattered Clouds,90,2012-12-07 16:15:00
10:35 AM,39.2,28.9,67,29.95,10.0,East,9.2,-,N/A,,Clear,100,2012-12-07 16:35:00
10:55 AM,39.7,29.7,67,29.94,10.0,East,8.1,-,N/A,,Clear,100,2012-12-07 16:55:00
11:15 AM,40.5,30.2,67,29.94,10.0,East,9.2,-,N/A,,Clear,80,2012-12-07 17:15:00
11:35 AM,41.4,30.2,65,29.92,10.0,East,6.9,-,N/A,,Clear,80,2012-12-07 17:35:00
11:55 AM,41.9,30.4,64,29.91,10.0,East,10.4,-,N/A,,Clear,80,2012-12-07 17:55:00
12:15 PM,42.6,30.9,63,29.91,10.0,ESE,6.9,-,N/A,,Clear,110,2012-12-07 18:15:00
12:35 PM,42.1,30.9,65,29.90,10.0,NE,3.5,-,N/A,,Clear,40,2012-12-07 18:35:00
12:55 PM,42.4,31.1,64,29.90,10.0,NNE,5.8,-,N/A,,Clear,30,2012-12-07 18:55:00
1:15 PM,42.8,31.3,64,29.89,10.0,East,5.8,-,N/A,,Clear,80,2012-12-07 19:15:00
1:35 PM,43.0,31.8,65,29.90,10.0,North,3.5,-,N/A,,Clear,350,2012-12-07 19:35:00
1:55 PM,43.2,31.8,64,29.90,10.0,NNW,4.6,-,N/A,,Clear,340,2012-12-07 19:55:00
2:15 PM,43.3,31.6,63,29.92,10.0,North,8.1,-,N/A,,Mostly Cloudy,350,2012-12-07 20:15:00
2:35 PM,43.2,30.7,62,29.92,10.0,NNW,6.9,-,N/A,,Overcast,340,2012-12-07 20:35:00
2:55 PM,43.2,28.6,56,29.92,10.0,NNW,8.1,-,N/A,,Overcast,340,2012-12-07 20:55:00
3:15 PM,43.5,28.0,54,29.92,10.0,NNW,8.1,-,N/A,,Overcast,340,2012-12-07 21:15:00
3:35 PM,43.3,28.0,55,29.92,10.0,NNE,8.1,-,N/A,,Overcast,20,2012-12-07 21:35:00
3:55 PM,43.2,28.0,55,29.92,10.0,NNE,6.9,-,N/A,,Overcast,20,2012-12-07 21:55:00
4:15 PM,42.8,27.5,55,29.93,10.0,North,9.2,-,N/A,,Overcast,360,2012-12-07 22:15:00
4:35 PM,42.8,26.6,53,29.93,10.0,NNE,8.1,-,N/A,,Overcast,20,2012-12-07 22:35:00
4:55 PM,41.9,27.3,56,29.92,10.0,NNE,8.1,-,N/A,,Overcast,30,2012-12-07 22:55:00
5:15 PM,41.4,27.7,58,29.91,10.0,NE,5.8,-,N/A,,Overcast,40,2012-12-07 23:15:00
5:35 PM,41.2,27.1,57,29.90,10.0,NE,8.1,-,N/A,,Mostly Cloudy,50,2012-12-07 23:35:00
5:55 PM,41.2,26.6,56,29.90,10.0,ENE,8.1,-,N/A,,Overcast,60,2012-12-07 23:55:00
6:15 PM,41.2,26.6,56,29.90,10.0,East,8.1,-,N/A,,Overcast,80,2012-12-08 00:15:00
6:35 PM,41.2,27.0,57,29.90,10.0,East,8.1,-,N/A,,Overcast,90,2012-12-08 00:35:00
6:55 PM,41.0,27.3,58,29.91,10.0,ENE,5.8,-,N/A,,Overcast,70,2012-12-08 00:55:00
7:15 PM,41.0,27.5,59,29.92,10.0,Calm,Calm,-,N/A,,Overcast,0,2012-12-08 01:15:00
7:35 PM,40.5,27.9,61,29.92,10.0,NNE,6.9,-,N/A,,Overcast,20,2012-12-08 01:35:00
7:55 PM,40.1,28.8,64,29.93,10.0,NNE,5.8,-,N/A,,Overcast,20,2012-12-08 01:55:00
8:15 PM,39.2,28.6,66,29.94,10.0,North,6.9,-,N/A,,Overcast,10,2012-12-08 02:15:00
8:55 PM,38.5,27.7,65,29.94,10.0,NNE,6.9,-,N/A,,Overcast,20,2012-12-08 02:55:00
9:15 PM,37.9,27.9,67,29.94,10.0,NNE,5.8,-,N/A,,Overcast,20,2012-12-08 03:15:00
9:35 PM,37.8,27.5,67,29.94,10.0,NNE,5.8,-,N/A,,Overcast,30,2012-12-08 03:35:00
9:55 PM,37.8,27.5,67,29.95,10.0,NNE,4.6,-,N/A,,Overcast,20,2012-12-08 03:55:00
10:35 PM,37.0,27.3,68,29.95,10.0,NNE,4.6,-,N/A,,Overcast,20,2012-12-08 04:35:00
10:55 PM,37.0,26.8,66,29.94,10.0,NNE,4.6,-,N/A,,Overcast,30,2012-12-08 04:55:00
11:15 PM,36.9,27.1,68,29.96,10.0,North,4.6,-,N/A,,Overcast,360,2012-12-08 05:15:00
11:35 PM,36.7,27.1,68,29.96,10.0,North,4.6,-,N/A,,Overcast,10,2012-12-08 05:35:00
11:55 PM,36.3,27.0,69,29.97,10.0,NNW,5.8,-,N/A,,Overcast,340,2012-12-08 05:55:00